This is the latest recevied weather packets stored in our database for station/object vk4zu-13. If no packets are shown the sender has not sent any weather packets the latest 10 day(s).
| Time | Temp. | Humidity | Pressure | Rain* | Wind** | Luminosity | Snow |
|---|---|---|---|---|---|---|---|
| 1777418416 | 22.78° C | 75% | 1025.3 hPa | 0 mm | - | 656 W/m² | - |
| 1777418346 | 22.78° C | 73% | 1025.3 hPa | 0 mm | - | 642 W/m² | - |
| 1777418275 | 22.78° C | 74% | 1025.3 hPa | 0 mm | - | 631 W/m² | - |
| 1777418210 | 22.78° C | 74% | 1025.3 hPa | 0 mm | - | 608 W/m² | - |
| 1777418136 | 22.78° C | 73% | 1025.4 hPa | 0 mm | - | 608 W/m² | - |
| 1777418066 | 22.78° C | 74% | 1025.5 hPa | 0 mm | - | 608 W/m² | - |
| 1777417997 | 22.22° C | 76% | 1025.4 hPa | 0 mm | - | 153 W/m² | - |
| 1777417927 | 22.22° C | 74% | 1025.4 hPa | 0 mm | - | 153 W/m² | - |
| 1777417858 | 22.22° C | 74% | 1025.3 hPa | 0 mm | - | 162 W/m² | - |
| 1777417788 | 22.22° C | 75% | 1025.3 hPa | 0 mm | - | 160 W/m² | - |
| 1777417717 | 22.78° C | 75% | 1025.2 hPa | 0 mm | - | 160 W/m² | - |
| 1777417647 | 22.78° C | 74% | 1025.4 hPa | 0 mm | - | 213 W/m² | - |
| 1777417585 | 22.78° C | 74% | 1025.4 hPa | 0 mm | - | 213 W/m² | - |
| 1777417524 | 22.22° C | 75% | 1025.4 hPa | 0 mm | - | 332 W/m² | - |
| 1777417454 | 22.22° C | 75% | 1025.3 hPa | 0 mm | - | 332 W/m² | - |
| 1777417385 | 22.22° C | 76% | 1025.3 hPa | 0 mm | - | 199 W/m² | - |
| 1777417314 | 22.78° C | 77% | 1025.3 hPa | 0 mm | - | 171 W/m² | - |
| 1777417263 | 22.78° C | 74% | 1025.2 hPa | 0 mm | - | 183 W/m² | - |
| 1777417176 | 22.78° C | 76% | 1025.2 hPa | 0 mm | - | 183 W/m² | - |
| 1777417104 | 22.22° C | 76% | 1025.1 hPa | 0 mm | - | 185 W/m² | - |
| 1777417034 | 22.22° C | 76% | 1025.2 hPa | 0 mm | - | 123 W/m² | - |
| 1777416964 | 22.22° C | 76% | 1025.1 hPa | 0 mm | - | 125 W/m² | - |
| 1777416895 | 22.22° C | 74% | 1025.1 hPa | 0 mm | - | 125 W/m² | - |
| 1777416825 | 22.78° C | 75% | 1025.1 hPa | 0 mm | - | 144 W/m² | - |
| 1777416754 | 22.78° C | 75% | 1025.2 hPa | 0 mm | - | 142 W/m² | - |
* Rain latest hour (hover to see other rain measurements)
** Current wind speed in m/s (hover to see current wind gust speed)